Slayton, MN

6:21 PM CDT on April 21, 2018 (GMT -0500)
Slayton

Weather History for KDVP - November, 2011

Change the Weather History Date:

Thursday, November 24, 2011

  Actual Average (KOTG) Record (KOTG)
Temperature  
Mean Temperature 48 °F -  
Max Temperature 60 °F 35 °F 61 °F (2017)
Min Temperature 36 °F 21 °F -9 °F (1985)
Degree Days  
Heating Degree Days 17    
Moisture  
Dew Point 34 °F    
Average Humidity 60    
Maximum Humidity 80    
Minimum Humidity 38    
Precipitation  
Precipitation 0.00 in - - ()
Sea Level Pressure  
Sea Level Pressure 29.79 in    
Wind  
Wind Speed 17 mph (SSW)    
Max Wind Speed 24 mph    
Max Gust Speed 30 mph    
Visibility 10 miles    
Events      
Averages and records for this station are not official NWS values.
T = Trace of Precipitation, MM = Missing Value Source: NWS Daily Summary

Daily Weather History Graph

Daily Weather History Graph

Search for Another Location

Airport or City:

Astronomy

Nov. 24, 2011 Rise Set
Actual Time 7:29 AM CST 4:49 PM CST
Civil Twilight 6:57 AM CST 5:21 PM CST
Nautical Twilight 6:21 AM CST 5:57 PM CST
Astronomical Twilight 5:47 AM CST 6:31 PM CST
Moon 6:49 AM CST (11/24) 4:20 PM CST (11/24)
Length of Visible Light 10h 24m
Length of Day
9h 20m
Waning Crescent, 0% of the Moon is Illuminated
Nov 24
Waning Crescent
Nov 25
New
Dec 2
First Quarter
Dec 10
Full
Dec 17
Last Quarter

Hourly Weather History & Observations

Time (CST) Temp. Windchill Dew Point Humidity Pressure Visibility Wind Dir Wind Speed Gust Speed Precip Events Conditions
12:15 AM 38.3 °F 28.7 °F 32.2 °F 79% 29.95 in 7.0 mi SSW 18.4 mph - N/A   Clear
12:55 AM 38.5 °F 28.9 °F 32.0 °F 78% 29.94 in 7.0 mi SSW 18.4 mph - N/A   Clear
1:15 AM 39.2 °F 29.6 °F 32.0 °F 75% 29.93 in 10.0 mi SSW 19.6 mph - N/A   Clear
2:55 AM 38.1 °F 29.5 °F 32.2 °F 79% 29.90 in 10.0 mi South 15.0 mph 18.4 mph N/A   Clear
3:15 AM 38.7 °F 29.5 °F 32.0 °F 77% 29.89 in 10.0 mi South 17.3 mph - N/A   Clear
3:35 AM 38.7 °F 30.5 °F 32.0 °F 77% 29.88 in 10.0 mi South 13.8 mph - N/A   Clear
3:55 AM 38.7 °F 30.9 °F 32.0 °F 77% 29.87 in 10.0 mi South 12.7 mph - N/A   Clear
4:15 AM 39.4 °F 30.1 °F 32.0 °F 75% 29.86 in 10.0 mi South 18.4 mph 25.3 mph N/A   Clear
4:35 AM 40.1 °F 31.0 °F 31.8 °F 72% 29.86 in 10.0 mi South 18.4 mph 23.0 mph N/A   Clear
5:15 AM 39.2 °F 32.0 °F 31.8 °F 75% 29.87 in 10.0 mi South 11.5 mph - N/A   Clear
5:35 AM 39.7 °F 33.2 °F 31.8 °F 73% 29.87 in 10.0 mi South 10.4 mph - N/A   Clear
5:55 AM 39.6 °F 32.1 °F 31.8 °F 74% 29.86 in 10.0 mi South 12.7 mph - N/A   Clear
6:14 AM 39.2 °F 31.2 °F 31.6 °F 74% 29.86 in 10.0 mi South 13.8 mph - N/A   Clear
6:35 AM 38.3 °F 30.1 °F 31.5 °F 76% 29.85 in 10.0 mi South 13.8 mph - N/A   Clear
6:55 AM 37.2 °F 29.1 °F 31.3 °F 79% 29.85 in 10.0 mi South 12.7 mph - N/A   Clear
7:15 AM 36.7 °F 28.4 °F 31.1 °F 80% 29.85 in 10.0 mi South 12.7 mph - N/A   Clear
7:35 AM 38.1 °F 29.8 °F 31.1 °F 76% 29.85 in 10.0 mi South 13.8 mph - N/A   Clear
7:55 AM 37.8 °F 30.2 °F 31.6 °F 79% 29.85 in 10.0 mi South 11.5 mph - N/A   Clear
8:35 AM 40.5 °F 32.5 °F 32.0 °F 72% 29.84 in 10.0 mi SSW 15.0 mph 19.6 mph N/A   Clear
8:55 AM 42.1 °F 33.9 °F 32.0 °F 67% 29.83 in 10.0 mi SSW 17.3 mph 23.0 mph N/A   Clear
9:14 AM 43.9 °F 35.7 °F 32.2 °F 63% 29.82 in 10.0 mi SSW 19.6 mph - N/A   Clear
9:35 AM 44.8 °F 37.4 °F 32.2 °F 61% 29.81 in 10.0 mi SSW 17.3 mph - N/A   Clear
10:15 AM 47.1 °F - 32.4 °F 57% 29.81 in 10.0 mi SSW 23.0 mph 28.8 mph N/A   Clear
10:35 AM 46.9 °F - 32.9 °F 58% 29.82 in 10.0 mi SW 24.2 mph 29.9 mph N/A   Clear
10:55 AM 49.3 °F - 33.1 °F 54% 29.81 in 10.0 mi SSW 19.6 mph 25.3 mph N/A   Clear
11:15 AM 50.4 °F - 33.3 °F 52% 29.80 in 10.0 mi SSW 17.3 mph - N/A   Clear
11:35 AM 51.8 °F - 33.3 °F 49% 29.78 in 10.0 mi South 16.1 mph - N/A   Clear
11:55 AM 53.8 °F - 32.9 °F 45% 29.77 in 10.0 mi SSW 21.9 mph - N/A   Clear
12:15 PM 56.5 °F - 33.8 °F 42% 29.77 in 10.0 mi SSW 17.3 mph 23.0 mph N/A   Clear
12:35 PM 57.6 °F - 33.8 °F 41% 29.75 in 10.0 mi SSW 20.7 mph - N/A   Clear
1:15 PM 60.1 °F - 34.3 °F 38% 29.74 in 10.0 mi SSW 18.4 mph 26.5 mph N/A   Clear
1:35 PM 57.9 °F - 35.6 °F 43% 29.74 in 10.0 mi SSW 18.4 mph - N/A   Clear
1:55 PM 59.9 °F - 34.9 °F 39% 29.74 in 10.0 mi SSW 17.3 mph 21.9 mph N/A   Clear
2:15 PM 59.9 °F - 35.6 °F 40% 29.73 in 10.0 mi SSW 16.1 mph 24.2 mph N/A   Clear
2:35 PM 59.9 °F - 35.6 °F 40% 29.73 in 10.0 mi SSW 19.6 mph - N/A   Clear
2:55 PM 59.9 °F - 35.6 °F 40% 29.73 in 10.0 mi SSW 17.3 mph 26.5 mph N/A   Clear
3:14 PM 59.5 °F - 36.7 °F 43% 29.72 in 10.0 mi SSW 24.2 mph - N/A   Clear
3:35 PM 58.5 °F - 37.4 °F 45% 29.72 in 10.0 mi SSW 17.3 mph 24.2 mph N/A   Clear
3:55 PM 58.5 °F - 36.9 °F 45% 29.71 in 10.0 mi SSW 19.6 mph 25.3 mph N/A   Clear
4:15 PM 58.1 °F - 35.6 °F 43% 29.71 in 10.0 mi SSW 23.0 mph 28.8 mph N/A   Clear
5:15 PM 54.7 °F - 36.5 °F 50% 29.70 in 10.0 mi SSW 19.6 mph - N/A   Clear
5:35 PM 54.0 °F - 36.5 °F 52% 29.71 in 10.0 mi SSW 18.4 mph - N/A   Clear
5:55 PM 54.0 °F - 35.8 °F 50% 29.70 in 10.0 mi SSW 21.9 mph - N/A   Clear
6:15 PM 54.0 °F - 35.2 °F 49% 29.71 in 10.0 mi SSW 24.2 mph 28.8 mph N/A   Clear
6:54 PM 51.8 °F - 35.1 °F 53% 29.72 in 10.0 mi SSW 17.3 mph 25.3 mph N/A   Clear
7:15 PM 50.9 °F - 35.1 °F 55% 29.71 in 10.0 mi SSW 18.4 mph - N/A   Clear
7:35 PM 51.6 °F - 34.9 °F 53% 29.70 in 10.0 mi SSW 17.3 mph - N/A   Clear
7:55 PM 50.9 °F - 34.7 °F 54% 29.70 in 10.0 mi SW 15.0 mph - N/A   Clear
8:15 PM 50.9 °F - 34.7 °F 54% 29.70 in 10.0 mi SSW 17.3 mph - N/A   Clear
8:35 PM 50.0 °F - 34.2 °F 55% 29.70 in 10.0 mi SSW 17.3 mph - N/A   Clear
8:55 PM 49.6 °F - 33.8 °F 54% 29.70 in 10.0 mi SSW 16.1 mph - N/A   Clear
9:15 PM 49.5 °F - 33.8 °F 55% 29.71 in 10.0 mi SW 17.3 mph - N/A   Clear
9:35 PM 49.1 °F - 33.6 °F 55% 29.71 in 10.0 mi SW 15.0 mph - N/A   Clear
9:55 PM 48.2 °F - 33.3 °F 56% 29.70 in 10.0 mi SSW 17.3 mph - N/A   Clear
10:35 PM 48.2 °F - 32.7 °F 55% 29.68 in 10.0 mi SSW 16.1 mph - N/A   Clear
10:55 PM 46.4 °F 39.5 °F 32.7 °F 59% 29.68 in 10.0 mi SSW 17.3 mph - N/A   Clear
11:15 PM 46.0 °F 39.3 °F 32.5 °F 59% 29.68 in 10.0 mi SSW 16.1 mph - N/A   Clear
11:35 PM 45.7 °F 40.2 °F 32.2 °F 59% 29.68 in 10.0 mi SSW 11.5 mph - N/A   Clear
11:55 PM 46.9 °F - 32.4 °F 57% 29.68 in 10.0 mi SSW 15.0 mph - N/A   Clear